Regional Weather Roundup
Issued by NWS Jackson, KY

Home | Current Version | Previous Version | Graphics & Text | Print | Product List | Glossary On
Versions: 1 2 3 4 5 6 7 8 9 10 11 12 13 14 15 16 17 18 19 20 21 22 23 24 25 26 27 28 29 30 31 32 33 34 35 36 37 38 39 40 41 42 43 44 45 46 47 48 49 50
000
ASUS43 KJKL 290919
RWRJKL

EAST KENTUCKY HOURLY WEATHER ROUNDUP
NATIONAL WEATHER SERVICE JACKSON KY
400 AM EST MON DEC 29 2014

NOTE: "FAIR" INDICATES FEW OR NO CLOUDS BELOW 12,000 FEET WITH
NO SIGNIFICANT WEATHER AND/OR OBSTRUCTIONS TO VISIBILITY.

* THESE REPORTS ARE NOT UNDER NWS QUALITY CONTROL AND MAY NOT
  REPORT WEATHER SUCH AS PRECIPITATION AND FOG.

KYZ079-080-083-085-087-088-110-112-115-119-120-291000
...EASTERN KENTUCKY...

CITY           SKY/WX    TMP DP  RH WIND       PRES   REMARKS
JACKSON        FOG       35  34  96 CALM      30.13F VSB 1/2
LONDON         CLOUDY    38  34  85 NE5       30.12F WCI  34
SOMERSET*      CLOUDY    34  34 100 NE6       30.14F FOG     WCI  29
MONTICELLO*    CLOUDY    38  38 100 NE9       30.15F WCI  31
MIDDLESBORO*   LGT RAIN  42  41  98 NE3       30.11F
HARLAN APT*    CLOUDY    41  41 100 CALM      30.10F
HAZARD APT*    DRIZZLE   37  37 100 NE3       30.13F
BLACK MTN*       N/A     39  39 100 S1          N/A
PIKEVILLE APT* LGT RAIN  34  34 100 CALM      30.13F VSB 1/4
BIG SANDY*     RAIN      35  35 100 N5        30.16F WCI  31
MOREHEAD APT*  CLOUDY    34  32  93 NE5       30.18F FOG     WCI  30
ASHLAND*       CLOUDY   N/A N/A N/A NE3       30.17S
$$

KYZ035-036-041-042-044-050-067-078-099-291000
...CENTRAL KENTUCKY...

CITY           SKY/WX    TMP DP  RH WIND       PRES   REMARKS
MT STERLING*   CLOUDY    32  32 100 NE5       30.18F WCI  27
FLEMING/MASON* MOCLDY    30  30 100 NE7       30.19F FOG     WCI  23
DANVILLE*      CLOUDY    32  32 100 NE6       30.17F WCI  26
RICHMOND*      CLOUDY    34  32  93 NE5       30.15F WCI  30
LEXINGTON      PTCLDY    29  28  96 NE6       30.17F WCI  23
FRANKFORT      CLEAR     30  27  88 N5        30.18S WCI  25
$$

KYZ091>093-OHZ055-061-077-WVZ005-015-034-035-042-291000
...SOUTHERN OHIO/WEST VIRGINIA...

CITY           SKY/WX    TMP DP  RH WIND       PRES   REMARKS
COVINGTON      MOCLDY    31  24  75 N9        30.21F WCI  23
COLUMBUS       CLEAR     27  24  89 N5        30.22R WCI  22
DAYTON         CLEAR     25  23  92 N7        30.23S FOG     WCI  17
WILMINGTON     CLEAR     27  24  89 N7        30.21R FOG     WCI  19
HUNTINGTON     CLOUDY    34  32  92 N3        30.19R
CHARLESTON     CLOUDY    37  33  85 N3        30.17R
PINEVILLE*     DRIZZLE   42  42 100 MISG      30.17R
BECKLEY        CLOUDY    36  34  92 N5        30.11R FOG     WCI  32
BLUEFIELD      CLOUDY    42  38  85 W6        30.08F
$$

VAZ002-007-008-TNZ017-027-036-066-071-291000
...SOUTHWEST VIRGINIA/EAST TENNESSEE...

CITY           SKY/WX    TMP DP  RH WIND       PRES   REMARKS
WISE*          DRZL/FOG  39  39 100 N3        30.10R VSB 1/2
JONESVILLE*    CLOUDY    45  45 100 CALM      30.11F
ABINGDON*      LGT RAIN  48  48 100 CALM      30.07F
BRISTOL        LGT RAIN  48  48 100 CALM      30.08F FOG
KNOXVILLE      CLOUDY    46  45  96 N7        30.07F
OAK RIDGE      LGT RAIN  46  44  93 CALM      30.10F
CROSSVILLE     LGT RAIN  42  40  92 NE5       30.08F
NASHVILLE      CLOUDY    37  36  96 N6        30.16S FOG     WCI  32
$$

...KEY TO REMARKS...
VSB - VISIBILITY IN MILES
WCI - WIND CHILL INDEX
HX  - HEAT INDEX

$$



USA.gov is the U.S. government's official web portal to all federal, state and local government web resources and services.